Location: Kuppenheim
(48.8299°N, 8.2568°E)
Time: 10:22:44
(UTC+00:00)

Cosmos 1898 Rocket - Pass Details

Date: 20 June 2021
Orbit: 754 x 783 km, 74.0° (Epoch: 03 August)

Event Time Altitude Azimuth Distance (km) Brightness Sun altitude
Rises 00:25:32 0° 334° (NNW) 3,250 7.6 -16.6°
Reaches altitude 10° 00:27:56 10° 332° (NNW) 2,315 6.7 -16.5°
Maximum altitude 00:33:07 65° 252° (WSW) 836 3.5 -16.3°
Enters shadow 00:36:07 25° 176° (S) 1,499 4.5 -16.2°
